sat.trackr.live / text

‹ back to catalog

STARLINK-37404

NORAD 68786 · 2026-086W

PAYLOAD ACTIVE UNKNOWN

§ Identity

Operator
Country
US
Launch date
2026-04-19
Launch site
AFWTR
Launch vehicle
Mass (kg)
RCS (m²)

Purposes: comms

External: N2YO · Heavens-Above · Gunter

§ Orbital elements

Epoch: 2026-09-19T22:40:41.844000Z

Period
93.91 min
Inclination
97.2852°
Eccentricity
0.0001083
Mean motion
15.33457336 rev/d
Perigee alt
464.8 km
Apogee alt
466.2 km
Semi-major
6,843.6 km
B*
3.6889e-4
RAAN
298.4387°
Arg perigee
116.1202°
Mean anomaly
244.0152°
Rev number
2,360

§ Raw data

STARLINK-374041 68786U 26086W   26262.94492875  .00011857  00000+0  36889-3 0  99912 68786  97.2852 298.4387 0001083 116.1202 244.0152 15.33457336 23605

JSON: /api/v1/satellites/68786 · /tle

For live sub-satellite position, see the globe view (requires WebGL).

§ Visibility from observer

Set your observer location to see the next 7 days of passes ≥ 10°. The values pass through the URL so the page stays shareable.

No JS? Fill the form by hand. The geolocation button needs JavaScript.